Flag for U.S.A. Weather past 2 weeks in Livonia, Michigan, U.S.A.

Now
57 °F

Fog.


Feels Like: 57 °F
Forecast: 56 / 76 °F
Wind: 3 mph from East

Location: Detroit Metropolitan Wayne County Airport

Current Time: Oct 2, 2014 at 1:22:36 AM

Latest Report: Oct 2, 2014 at 12:53 AM


Visibility: 2 mi

Pressure: 30.05 "Hg

Humidity: 96%

Dew point: 56 °F

Location of LivoniaLocation

Historic Weather in Livonia — Graph

°F

Livonia temperature yesterday

Maximum temperature yesterday: 67 °F (at 1:53 PM)
Minimum temperature yesterday: 53 °F (at 12:53 AM)
Average temperature yesterday: 59 °F

Past Weeks' High & Low Weather Summary

 TemperatureHumidityPressure
High80 °F (Sep 20, 2:53 PM)100% (Sep 26, 9:02 AM)30.45 "Hg (Sep 26, 9:02 AM)
Low43 °F (Sep 19, 6:53 AM)40% (Sep 19, 4:53 PM)29.61 "Hg (Sep 21, 6:53 AM)
Average60 °F74%30.13 "Hg
* Reported Sep 16 11:53 PM — Oct 1 11:53 PM, Livonia, Weather by CustomWeather, © 2014

Note: Actual official high and low records may vary slightly from our data, if they occured in-between our weather recording intervals... More about our weather records

Advertising

Livonia weather history for previous 24 hours

 ConditionsComfort  
Time TempWeatherWind HumidityBarometerVisibility
11:53 PM
Oct 1
57 °FFog.No wind93%30.05 "Hg4 mi
10:53 PM57 °FPartly cloudy.No wind93%30.04 "Hg9 mi
9:53 PM59 °FPartly cloudy.No wind84%30.05 "Hg9 mi
8:53 PM60 °FPassing clouds.7 mph78%30.03 "Hg10 mi
7:53 PM62 °FScattered clouds.No wind73%30.03 "Hg10 mi
6:53 PM64 °FScattered clouds.5 mph68%30.02 "Hg10 mi
5:53 PM65 °FBroken clouds.3 mph66%30.01 "Hg10 mi
4:53 PM67 °FBroken clouds.5 mph61%30.02 "Hg10 mi
3:53 PM66 °FPartly sunny.3 mph63%30.03 "Hg10 mi
2:53 PM66 °FMostly cloudy.6 mph61%30.04 "Hg10 mi
1:53 PM67 °FScattered clouds.6 mph61%30.06 "Hg10 mi
12:53 PM60 °FPartly sunny.No wind72%30.07 "Hg10 mi
11:53 AM63 °FPartly sunny.No wind63%30.07 "Hg10 mi
10:53 AM62 °FScattered clouds.No wind65%30.07 "Hg10 mi
9:53 AM57 °FScattered clouds.No wind78%30.07 "Hg10 mi
8:53 AM56 °FScattered clouds.No wind87%30.06 "Hg9 mi
8:00 AM54 °FPartly cloudy.No wind94%30.05 "Hg8 mi
6:53 AM54 °FLow clouds.No wind93%30.04 "Hg10 mi
5:53 AM54 °FLow clouds.No wind90%30.03 "Hg10 mi
5:00 AM54 °FMostly cloudy.No wind94%30.03 "Hg10 mi
3:53 AM54 °FOvercast.5 mph90%30.02 "Hg10 mi
2:53 AM53 °FMostly cloudy.7 mph86%30.03 "Hg10 mi
1:53 AM53 °FOvercast.3 mph86%30.03 "Hg10 mi
Weather by CustomWeather, © 2014

See weather overviewHow to use our weather pages